User: anonymous   Login
Location: Unspecified
(0.0000°N, 0.0000°E)
Time: 15:48:51
(UTC+00:00)
Language:

EO-88 - Orbit

View from above orbital plane
View from above orbital plane
View from above satellite
View from above satellite

Ground track
Ground track

The orbit data is extracted from the following two-line orbital elements,

1 42017U 17008BX  18197.89583269 +.00001241 +00000-0 +53352-4 0  9996
2 42017 097.4464 262.7753 0004705 277.1489 082.9214 15.24531529078598
Epoch (UTC): 16 July 2018 21:29:59
Eccentricity: 0.0004705
inclination: 97.4464°
perigee height: 489 km
apogee height: 495 km
right ascension of ascending node: 262.7753°
argument of perigee: 277.1489°
revolutions per day: 15.24531529
mean anomaly at epoch: 82.9214°
orbit number at epoch: 7859

The dashed part of the orbit path shows where the satellite is in the earth's shadow,  

DLR